Regional Weather Roundup
Issued by NWS

Home | Current Version | Previous Version | Text Only | Print | Product List | Glossary Off
Versions: 1 2 3 4 5 6 7 8 9 10 11 12 13 14 15 16 17 18 19 20 21 22 23 24 25 26 27

000
ASUS45 KBOI 232110
RWRID

IDAHO REGIONAL WEATHER ROUNDUP
NATIONAL WEATHER SERVICE BOISE ID
300 PM MDT SUN APR 23 2017

NOTE: "FAIR" INDICATES FEW OR NO CLOUDS BELOW 12000 FEET
WITH NO SIGNIFICANT WEATHER AND/OR OBSTRUCTIONS TO VISIBILITY

IDZ012-014-232200-
SOUTHWEST IDAHO


CITY           SKY/WX    TMP DP  RH WIND       PRES   REMARKS
BOISE          MOSUNNY   62  38  40 VRB5      29.81S
CALDWELL       MOSUNNY   63  40  42 SW8       29.81F
MOUNTAIN HOME  SUNNY     65  39  38 NW7       29.79F
$$

IDZ016-017-232200-
SOUTHCENTRAL IDAHO


CITY           SKY/WX    TMP DP  RH WIND       PRES   REMARKS
BURLEY         CLOUDY    61  34  36 W12       29.80F
JEROME         CLOUDY    60  35  39 SW14      29.82S
TWIN FALLS     CLOUDY    60  39  45 SW8       29.82F
$$

IDZ019>023-232200-
SOUTHEAST IDAHO


CITY           SKY/WX    TMP DP  RH WIND       PRES   REMARKS
IDAHO FALLS    CLOUDY    59  39  47 SW17G24   29.80F
POCATELLO      CLOUDY    59  36  42 W16G24    29.82S
REXBURG        CLOUDY    57  35  43 SW14G23   29.78F
$$

IDZ006-010-011-018-031-032-232200-
CENTRAL IDAHO MOUNTAINS


CITY           SKY/WX    TMP DP  RH WIND       PRES   REMARKS
MCCALL         PTSUNNY   46  33  60 CALM      29.82S
HAILEY         PTSUNNY   52  36  54 S9        29.83R
STANLEY          N/A     40  35  83 S6        29.86S
SALMON         CLOUDY    46  39  76 E8        29.81R
CHALLIS        PTSUNNY   48  37  65 E7        29.80S
$$

IDZ002-004-006-007-026-232200-
NORTHERN IDAHO


CITY           SKY/WX    TMP DP  RH WIND       PRES   REMARKS
LEWISTON       LGT RAIN  53  44  71 SW6       29.86F
LOWELL           N/A     62  41  46 CALM      29.84F
COEUR D`ALENE  CLOUDY    55  38  52 SW13G22   29.81F
MULLAN PASS    LGT SNOW  39  34  82 VRB3      29.81R
$$




USA.gov is the U.S. government's official web portal to all federal, state and local government web resources and services.